Regional Weather Roundup
Issued by NWS

Home | Current Version | Previous Version | Text Only | Print | Product List | Glossary On
Versions: 1 2 3 4 5 6 7 8 9 10 11 12 13 14 15 16 17 18 19 20 21 22 23 24 25 26 27 28 29 30 31 32 33 34 35 36 37 38 39 40 41 42 43 44 45 46 47 48 49 50
000
ASUS43 KMPX 281810
RWRMN
WEATHER ROUNDUP FOR MINNESOTA
NATIONAL WEATHER SERVICE TWIN CITIES/CHANHASSEN MN
100 PM CDT SUN AUG 28 2016


NOTE: "FAIR" INDICATES FEW OR NO CLOUDS BELOW 12,000 FEET WITH NO
SIGNIFICANT WEATHER AND/OR OBSTRUCTIONS TO VISIBILITY. N/A MEANS
CURRENT SKY AND/OR WEATHER CONDITIONS ARE NOT AVAILABLE.

MNZ060>063-068>070-281900-
   Twin Cities Metro

CITY           SKY/WX    TMP DP  RH WIND       PRES   REMARKS
TWIN CITIES    CLOUDY    81  67  62 S13       30.13S
6HR MIN TEMP:  62; 6HR MAX TEMP:  81;

ST PAUL        CLOUDY    79  69  71 S9        30.14S
CRYSTAL        CLOUDY    79  67  66 SE6       30.12S
BLAINE         CLOUDY    73  72  94 E10       30.14S
LAKEVILLE      MOSUNNY   79  70  73 S6        30.14S
EDEN PRAIRIE   CLOUDY    81  69  67 S13       30.12S
6HR MIN TEMP:  63; 6HR MAX TEMP:  83;

LAKEVILLE      MOSUNNY   79  70  73 S6        30.14S
SOUTH ST PAUL  CLOUDY    80  69  69 S7        30.13S
LAKE ELMO      PTSUNNY   77  70  78 S6        30.16S
$$
MNZ001>005-007-008-013>017-022>024-027-028-281900-
   Northwest Minnesota

CITY           SKY/WX    TMP DP  RH WIND       PRES   REMARKS
BEMIDJI        SUNNY     72  63  72 SE9       30.09F
HALLOCK        SUNNY     81  63  54 S17       29.97F
ROSEAU         SUNNY     73  66  78 SE12      30.04F
WARROAD        CLOUDY    70  64  83 SE10      30.07F
THIEF RVR FALL MOSUNNY   77  62  59 SE17      30.04S
CROOKSTON      SUNNY     77  64  65 S17       30.01F
FOSSTON        SUNNY     72  64  78 SE8       30.06S
DETROIT LAKES  MOSUNNY   75  63  64 SE16      30.05F
MOORHEAD       SUNNY     81  64  57 S17G23    29.99F
PARK RAPIDS    MOSUNNY   76  63  64 SE16      30.08F
MAHNOMEN       FAIR      73  63  70 SE9       30.04S
$$
MNZ006-009>011-018-025>026-281900-
   North Central Minnesota

CITY           SKY/WX    TMP DP  RH WIND       PRES   REMARKS
BAUDETTE       CLOUDY    66  63  90 SE10      30.09F
FLAG ISLAND    CLOUDY    64  61  88 CALM      30.07F
INTL FALLS     CLOUDY    67  61  81 VRB5      30.14S
6HR MIN TEMP:  57; 6HR MAX TEMP:  67;

WASKISH          N/A     66  64  94 SE8       30.11S
BIG FORK       CLOUDY    68  63  83 SE3       30.14S
LONGVILLE      SUNNY     75  63  64 SE7       30.12S
GRAND RAPIDS   PTSUNNY   70  63  78 SE7       30.16F
CRANE LAKE     CLOUDY    61  59  94 SE1       30.18S
ORR            CLOUDY    64  59  82 SE3       30.14S
COOK           CLOUDY    64  61  88 S5        30.18R
WALKER         FAIR      74  63  67 SE6       30.10F
$$
MNZ012-019>021-037-281900-
   Northeast Minnesota

CITY           SKY/WX    TMP DP  RH WIND       PRES   REMARKS
DULUTH         PTSUNNY   67  62  84 S7        30.18F
6HR MIN TEMP:  59; 6HR MAX TEMP:  68;

ELY            CLOUDY    64  61  88 W5        30.18S
HIBBING        PTSUNNY   66  61  84 SE7       30.16F
EVELETH        CLOUDY    65  60  82 CALM      30.18S
DULUTH HARBOR  CLOUDY    66  63  88 NE3       30.18S
TWO HARBORS    CLOUDY    64  61  88 SE6       30.18R
SILVER BAY     CLOUDY    66  61  82 S5        30.18R
GRAND MARAIS     N/A     66  55  67 SW9       30.18R
G MARAIS ARPRT SUNNY     70  54  56 SE6       30.21R
$$
MNZ029>031-032-039>041-046>048-054>057-064-281900-
   West Central Minnesota

CITY           SKY/WX    TMP DP  RH WIND       PRES   REMARKS
FERGUS FALLS   SUNNY     79  64  61 S14       30.04F
WHEATON        SUNNY     82  72  69 SE17G24   30.03S
MORRIS         SUNNY     84  68  58 S18       30.03F
ALEXANDRIA     SUNNY     77  65  66 S12       30.09S
ELBOW LAKE     FAIR      78  65  64 SE14      30.05S
WADENA         SUNNY     75  63  64 SE12      30.07F
GLENWOOD       SUNNY     79  68  69 S13       30.09F
APPLETON       SUNNY     81  70  69 S8        30.04F
BENSON         SUNNY     81  68  65 SW16G23   30.06S
ORTONVILLE     SUNNY     79  70  73 S14G21    30.03F
MADISON        SUNNY     79  68  69 S18G24    30.04F
WILLMAR        FAIR      82  72  69 S5        30.09S
$$
MNZ033>034-036-042>043-049>051-058-059-281900-
   Central Minnesota

CITY           SKY/WX    TMP DP  RH WIND       PRES   REMARKS
ST CLOUD       CLOUDY    71  68  90 SE8       30.12S
6HR MIN TEMP:  60; 6HR MAX TEMP:  71; 6HR PCP:  0.06;

SAUK CENTRE    FAIR      75  68  79 SE10      30.10S
PAYNESVILLE    SUNNY     75  72  89 SE5       30.11S
AITKIN         MOSUNNY   75  63  64 S8        30.12F
PINE RIVER     SUNNY     75  64  69 SE8       30.14S
BRAINERD       MOSUNNY   77  64  64 SE10      30.12S
STAPLES        SUNNY     75  63  64 SE8       30.09F
LONG PRAIRIE   FAIR      73  64  73 E6        30.11S
LITTLE FALLS   MOSUNNY   73  64  73 SE10      30.11S
LITCHFIELD     SUNNY     82  72  69 S5        30.09F
BUFFALO        CLOUDY    77  69  76 S6        30.13S
MAPLE LAKE     CLOUDY    71  71  99 E7        30.13S FOG
HUTCHINSON     SUNNY     81  72  75 S9        30.11F
$$
MNZ037-044-045-052-053-281900-
   East Central Minnesota

CITY           SKY/WX    TMP DP  RH WIND       PRES   REMARKS
PRINCETON      CLOUDY    73  70  88 E7        30.14S
MORA           CLOUDY    72  63  73 SE7       30.16F
CAMBRIDGE      CLOUDY    72  70  94 SE6       30.14S
RUSH CITY      PTSUNNY   71  66  86 SE6       30.16S
MOOSE LAKE     PTSUNNY   70  61  73 CALM      30.15S
HINCKLEY       CLOUDY    72  66  83 SE6       30.16S
CLOQUET        MOSUNNY   70  61  73 SE5       30.17F
MCGREGOR       MOSUNNY   72  63  73 SE6       30.15F
$$
MNZ071>073-080-081-089-090-097-098-281900-
   Southwest Minnesota

CITY           SKY/WX    TMP DP  RH WIND       PRES   REMARKS
MONTEVIDEO     SUNNY     81  73  78 SW14      30.08F
GRANITE FALLS  SUNNY     81  73  74 SE14      30.09F
CANBY          MOSUNNY   80  71  74 SE13G18   30.07F
MARSHALL       MOSUNNY   81  73  76 SE12      30.07F
REDWOOD FALLS  SUNNY     80  70  71 S13       30.09F
OLIVIA         SUNNY     79  70  73 S12       30.09S
PIPESTONE      SUNNY     82  72  69 S13       30.10S
WINDOM         MOSUNNY   82  72  69 SE12      30.12F
WORTHINGTON    MOSUNNY   82  73  74 SE10G18   30.12F
JACKSON          N/A     81  70  69 SE10      30.14F
TRACY          SUNNY     82  73  75 S12       30.10F
SLAYTON        MOSUNNY   81  73  78 SE14      30.12S
$$
MNZ065>067-074>077-082>085-091>093-281900-
   South Central Minnesota

CITY           SKY/WX    TMP DP  RH WIND       PRES   REMARKS
MANKATO        MOSUNNY   81  70  69 S10       30.13F
NEW ULM        SUNNY     81  70  69 S10       30.11S
ST JAMES       MOSUNNY   75  66  73 SE13G20   30.13F
FAIRMONT       PTSUNNY   80  71  74 S12G17    30.14F
GLENCOE        SUNNY     82  73  75 S10       30.11F
FARIBAULT      MOSUNNY   81  70  69 SE12      30.15S
OWATONNA       MOSUNNY   81  68  65 S8        30.16S
WASECA         MOSUNNY   79  68  69 SE8       30.16S
ALBERT LEA     SUNNY     81  70  69 SE10      30.15F
$$
MNZ078>079-086>088-094>096-281900-
   Southeast Minnesota

CITY           SKY/WX    TMP DP  RH WIND       PRES   REMARKS
ROCHESTER      MOSUNNY   79  69  71 S10       30.18F
6HR MIN TEMP:  60; 6HR MAX TEMP:  80;

RED WING       MOSUNNY   79  70  73 SE8       30.14F
STANTON        MOSUNNY   81  68  65 S8        30.13S
DODGE CENTER   MOSUNNY   81  66  61 S9        30.17F
WINONA         MOSUNNY   73  68  83 SE9       30.18F
AUSTIN         MOSUNNY   79  68  69 SE8       30.16F
PRESTON        MOSUNNY   78  67  70 SE10      30.20F
$$
ABBREVIATIONS USED IN REMARKS
   TC - TEMPERATURES IN CELSIUS
  WCI - WIND CHILL INDEX
   HX - HEAT INDEX
  VSB - VISIBILITY
$$




USA.gov is the U.S. government's official web portal to all federal, state and local government web resources and services.